Regional Weather Roundup
Issued by NWS Sioux Falls, SD

Home | Current Version | Previous Version | Text Only | Print | Product List | Glossary Off
Versions: 1 2 3 4 5 6 7 8 9 10 11 12 13 14 15 16 17 18 19 20 21 22 23 24 25 26 27 28 29 30 31 32 33 34 35 36 37 38 39 40 41 42 43 44 45 46 47 48 49 50

000
ASUS43 KFSD 242302
RWRFSD

WEATHER ROUNDUP FOR SE SOUTH DAKOTA/SW MINNESOTA/NW IOWA
NATIONAL WEATHER SERVICE SIOUX FALLS SD
600 PM CDT MON JUL 24 2017

NOTE: "FAIR" INDICATES FEW OR NO CLOUDS BELOW 12,000 FEET WITH NO
SIGNIFICANT WEATHER AND OR OBSTRUCTIONS TO VISIBILITY.


SDZ038>040-050-052>070-250000-
SOUTHEAST SOUTH DAKOTA

CITY           SKY/WX    TMP DP  RH WIND       PRES   REMARKS
BROOKINGS      MOSUNNY   80  64  58 SE14      29.95F
CHAMBERLAIN    CLOUDY    93  69  45 SE22G28   29.76F HX  97
HURON          CLOUDY    83  67  58 SE20G29   29.82F
MADISON        FAIR      79  64  61 SE15G24   29.94F
MITCHELL       SUNNY     88  67  49 SE17G25   29.86S
SIOUX FALLS    MOSUNNY   83  65  54 SE21      29.92F
WINNER         FAIR     102  47  15 S18       29.74F HX  98
YANKTON        SUNNY     87  67  51 SE20      29.90R
$$

MNZ071-072-080-081-089-090-097-098-250000-
SOUTHWEST MINNESOTA

CITY           SKY/WX    TMP DP  RH WIND       PRES   REMARKS
FAIRMONT       SUNNY     77  63  61 SE13      30.01F
JACKSON        SUNNY     79  61  53 SE10      30.01S
LUVERNE        SUNNY     79  61  53 SE13      29.96S
MARSHALL       MOSUNNY   79  65  62 SE13      29.99R
MONTEVIDEO     MOSUNNY   79  63  57 S8        29.99S
PIPESTONE      SUNNY     79  63  57 S9G18     29.98R
REDWOOD FALLS  MOSUNNY   78  62  57 S13       29.99S
TRACY          SUNNY     79  66  64 SE12      29.99R
WINDOM         CLOUDY    79  61  53 SE12      30.00S
WORTHINGTON    SUNNY     79  64  60 SE10      29.99F
$$

IAZ001>003-012>014-020>022-031-032-NEZ013-014-SDZ071-250000-
NORTHWEST IOWA

CITY           SKY/WX    TMP DP  RH WIND       PRES   REMARKS
CHEROKEE       SUNNY     82  64  54 SE10      29.98S
DENISON        SUNNY     81  64  57 SE8G14    29.99F
ESTHERVILLE    SUNNY     77  63  61 SE10      30.00S
ORANGE CITY    SUNNY     82  64  54 SE9G16    29.96S
SHELDON        SUNNY     81  64  57 SE15G22   29.95F
SIOUX CITY     SUNNY     84  66  54 SE14G21   29.94S
SPENCER        SUNNY     82  62  50 SE14G20   29.99S
STORM LAKE     SUNNY     79  64  61 S10       30.00S
$$

ABBREVIATIONS USED IN REMARKS
   TC - TEMPERATURE IN CELSIUS
  WCI - WIND CHILL INDEX
   HX - HEAT INDEX
  VSB - VISIBILITY




USA.gov is the U.S. government's official web portal to all federal, state and local government web resources and services.